(28541) = 2000 ED6 = 1996 DE5 = 1998 XB23

Discovered at Kitt Peak on 2000-03-02 by Spacewatch.

Orbit

Orbit type: Main Belt

Note: WebGL enabled browser required.

epoch2023-09-13.0
epoch JD2460200.5
perihelion date2023-03-01.85706
perihelion JD2460005.35706
argument of perihelion (°)115.48674
ascending node (°)107.73781
inclination (°)0.64308
eccentricity0.2042477
perihelion distance (AU)1.9301198
Tisserand w.r.t. Jupiter3.5
ΔV w.r.t. Earth (km/sec)8.7
semimajor axis (AU)2.4255284
mean anomaly (°)50.91517
mean daily motion (°/day)0.26091220
aphelion distance (AU)2.921
period (years)3.78
P-vector [x]-0.72862111
P-vector [y]-0.63236036
P-vector [z]-0.26311908
Q-vector [x]0.68483355
Q-vector [y]-0.66663297
Q-vector [z]-0.29428472
absolute magnitude15.23
phase slope0.15
uncertainty0
referenceMPEC 2024-A55
observations used1711
oppositions21
arc length (days)11975
first opposition used1990
last opposition used2023
residual rms (arc-secs)0.69
perturbers coarse indicatorM-v
perturbers precise indicator003Ek
first observation date used1990-10-18.0
last observation date used2023-08-01.0
computer namePan
JD of orbit computation2456966.758034
perihelion JD uncertainty (days)4.9893E-05
argument of perihelion uncertainty (°)3.6955E-04
ascending node uncertainty (°)3.6945E-04
inclination uncertainty (°)3.3963E-06
eccentricity uncertainty 3.8026E-08
perihelion distance uncertainty (AU)9.3648E-08
Minimum Orbit Intersection Distances (in AU)
for orbit epoch: 2460200.5, reference: E2024-A55
Mercury1.47703
Venus1.20691
Earth0.92053
Mars0.33644
Jupiter2.0525
Saturn6.21781
Uranus16.1937
Neptune26.9257

Observations

1712 total observations over interval: 1990 10 18.34387 – 2023 08 01.156248
These data are available for download (format description).

Date (UT) J2000 RA J2000 Dec Magn Location Ref
1990 10 18.34387 01 45 38.72 +09 52 54.2 19.7 V 691 – Steward Observatory, Kitt Peak-Spacewatch MPS 79071
1990 10 18.36742 01 45 37.35 +09 52 46.7 20.3 V 691 – Steward Observatory, Kitt Peak-Spacewatch MPS 79071
1990 10 18.40583 01 45 35.12 +09 52 34.8 19.8 V 691 – Steward Observatory, Kitt Peak-Spacewatch MPS 79071
1994 11 29.20544 02 30 41.77 +13 59 52.6   691 – Steward Observatory, Kitt Peak-Spacewatch MPS 33225
1994 11 29.22915 02 30 40.68 +13 59 47.8 19.2 V 691 – Steward Observatory, Kitt Peak-Spacewatch MPS 33225
1994 11 29.25282 02 30 39.55 +13 59 43.3   691 – Steward Observatory, Kitt Peak-Spacewatch MPS 33225
1996 02 16.03750 09 39 18.94 +14 44 35.0 18.5   010 – Caussols MPC 26795
1996 02 16.04792 09 39 18.27 +14 44 39.2   010 – Caussols MPC 26795
1996 02 16.05833 09 39 17.72 +14 44 42.6   010 – Caussols MPC 26795
1996 02 17.01632 09 38 18.96 +14 49 53.5   010 – Caussols MPC 26795
1996 02 17.02674 09 38 18.28 +14 49 56.7   010 – Caussols MPC 26795
1996 02 17.03715 09 38 17.66 +14 50 00.9   010 – Caussols MPC 26795
1996 03 15.26142 09 15 55.54 +16 40 35.3 18.1 V 566 – Haleakala-NEAT/GEODSS MPS 10725
1996 03 15.28227 09 15 54.85 +16 40 37.9 18.6 V 566 – Haleakala-NEAT/GEODSS MPS 10725
1996 03 15.30444 09 15 54.21 +16 40 40.8 18.2 V 566 – Haleakala-NEAT/GEODSS MPS 10725
1998 11 24.19872 04 00 56.69 +19 54 43.7 19.1   704 – Lincoln Laboratory ETS, New Mexico MPS 12300
1998 11 24.24695 04 00 53.65 +19 54 35.1 18.6   704 – Lincoln Laboratory ETS, New Mexico MPS 12300
1998 11 24.29481 04 00 50.44 +19 54 28.3 19.1   704 – Lincoln Laboratory ETS, New Mexico MPS 12300
1998 11 24.34312 04 00 47.38 +19 54 20.4 19.5   704 – Lincoln Laboratory ETS, New Mexico MPS 12300
1998 11 24.39116 04 00 44.00 +19 54 11.9 19.4   704 – Lincoln Laboratory ETS, New Mexico MPS 12300
1998 12 11.14665 03 43 59.03 +19 06 24.3 20.0 V 691 – Steward Observatory, Kitt Peak-Spacewatch MPS 3402
1998 12 11.16854 03 43 57.73 +19 06 20.7 19.5 V 691 – Steward Observatory, Kitt Peak-Spacewatch MPS 3402
1998 12 11.19083 03 43 56.55 +19 06 17.3 19.6 V 691 – Steward Observatory, Kitt Peak-Spacewatch MPS 3402
1998 12 14.28233 03 41 14.48 +18 58 13.9 19.5 V 691 – Steward Observatory, Kitt Peak-Spacewatch MPS 3402
1998 12 14.30440 03 41 13.34 +18 58 10.3 19.4 V 691 – Steward Observatory, Kitt Peak-Spacewatch MPS 3402
1998 12 14.32639 03 41 12.19 +18 58 07.2 19.4 V 691 – Steward Observatory, Kitt Peak-Spacewatch MPS 3402
1998 12 25.23795 03 33 19.08 +18 34 24.5 19.6 V 691 – Steward Observatory, Kitt Peak-Spacewatch MPS 20901
1998 12 25.26115 03 33 18.26 +18 34 21.3 19.5 V 691 – Steward Observatory, Kitt Peak-Spacewatch MPS 20901
1998 12 25.28342 03 33 17.43 +18 34 19.0 19.7 V 691 – Steward Observatory, Kitt Peak-Spacewatch MPS 20901
1999 01 07.14071 03 27 55.51 +18 19 10.4 20.0 V 691 – Steward Observatory, Kitt Peak-Spacewatch MPS 25121
1999 01 07.16284 03 27 55.15 +18 19 09.9 20.1 V 691 – Steward Observatory, Kitt Peak-Spacewatch MPS 25121
1999 01 07.18555 03 27 54.79 +18 19 09.0 20.2 V 691 – Steward Observatory, Kitt Peak-Spacewatch MPS 25121
1999 01 23.10087 03 27 31.78 +18 22 28.8 21.3 V 691 – Steward Observatory, Kitt Peak-Spacewatch MPS 80920
1999 01 23.12308 03 27 32.01 +18 22 29.9 21.3 V 691 – Steward Observatory, Kitt Peak-Spacewatch MPS 80920
1999 01 23.14531 03 27 32.25 +18 22 31.1 21.2 V 691 – Steward Observatory, Kitt Peak-Spacewatch MPS 80920
1999 02 09.10415 03 34 12.26 +18 50 37.3 20.3 V 691 – Steward Observatory, Kitt Peak-Spacewatch MPS 26638
1999 02 09.12808 03 34 13.08 +18 50 40.8 20.2 V 691 – Steward Observatory, Kitt Peak-Spacewatch MPS 26638
1999 02 09.14983 03 34 13.83 +18 50 43.6 20.6 V 691 – Steward Observatory, Kitt Peak-Spacewatch MPS 26638
1999 02 14.13833 03 37 24.54 +19 02 49.0 21.3 V 691 – Steward Observatory, Kitt Peak-Spacewatch MPS 80920
1999 02 14.16043 03 37 25.44 +19 02 52.5 21.4 V 691 – Steward Observatory, Kitt Peak-Spacewatch MPS 80920
1999 02 14.18285 03 37 26.35 +19 02 55.7 21.2 V 691 – Steward Observatory, Kitt Peak-Spacewatch MPS 80920
2000 02 27.39280 12 32 42.41 -02 22 10.6 17.8 R 703 – Catalina Sky Survey MPS 11351
2000 02 27.40899 12 32 42.04 -02 22 07.5 17.7 R 703 – Catalina Sky Survey MPS 11351
2000 02 27.42506 12 32 41.63 -02 22 04.1 17.4 R 703 – Catalina Sky Survey MPS 11351
2000 02 27.44113 12 32 41.26 -02 22 01.9 17.7 R 703 – Catalina Sky Survey MPS 11351
2000 03 02.41876 12 30 59.81 -02 08 53.8 17.2 V 691 – Steward Observatory, Kitt Peak-Spacewatch MPS 11351
2000 03 02.43977 12 30 59.14 -02 08 49.1 17.1 V 691 – Steward Observatory, Kitt Peak-Spacewatch MPS 11351
2000 03 02.46105 12 30 58.47 -02 08 44.4 17.1 V 691 – Steward Observatory, Kitt Peak-Spacewatch MPS 11351
2000 03 03.47414 12 30 28.09 -02 04 55.6 17.0 V 691 – Steward Observatory, Kitt Peak-Spacewatch MPS 11351
2000 03 03.49541 12 30 27.38 -02 04 50.7 17.0 V 691 – Steward Observatory, Kitt Peak-Spacewatch MPS 11351
2000 03 03.51674 12 30 26.67 -02 04 45.7 16.9 V 691 – Steward Observatory, Kitt Peak-Spacewatch MPS 11351
2000 03 08.39638 12 27 37.12 -01 43 59.1 18.1   704 – Lincoln Laboratory ETS, New Mexico MPS 11351
2000 03 08.40961 12 27 36.51 -01 43 54.9 17.4   704 – Lincoln Laboratory ETS, New Mexico MPS 11351
2000 03 08.42287 12 27 35.98 -01 43 51.0 17.8   704 – Lincoln Laboratory ETS, New Mexico MPS 11351
2000 03 08.43621 12 27 35.46 -01 43 47.5 17.6   704 – Lincoln Laboratory ETS, New Mexico MPS 11351
2000 03 08.44949 12 27 34.85 -01 43 43.5 17.9   704 – Lincoln Laboratory ETS, New Mexico MPS 11351
2000 03 10.38786 12 26 17.63 -01 34 28.9 17.4   704 – Lincoln Laboratory ETS, New Mexico MPS 11351
2000 03 10.40047 12 26 17.07 -01 34 25.5 17.6   704 – Lincoln Laboratory ETS, New Mexico MPS 11351
2000 03 10.41849 12 26 16.29 -01 34 20.1 17.4   704 – Lincoln Laboratory ETS, New Mexico MPS 11351
2000 03 10.43406 12 26 15.62 -01 34 15.3 17.8   704 – Lincoln Laboratory ETS, New Mexico MPS 11351
2000 03 10.44665 12 26 15.07 -01 34 11.1 18.6   704 – Lincoln Laboratory ETS, New Mexico MPS 11351
2000 03 11.38518 12 25 35.83 -01 29 32.1 17.7   704 – Lincoln Laboratory ETS, New Mexico MPS 11351
2000 03 11.40000 12 25 35.13 -01 29 28.0 17.9   704 – Lincoln Laboratory ETS, New Mexico MPS 11351
2000 03 11.41572 12 25 34.41 -01 29 24.2 17.8   704 – Lincoln Laboratory ETS, New Mexico MPS 11351
2000 03 11.42847 12 25 33.82 -01 29 19.9 17.7   704 – Lincoln Laboratory ETS, New Mexico MPS 11351
2000 03 11.44715 12 25 32.99 -01 29 14.8 17.8   704 – Lincoln Laboratory ETS, New Mexico MPS 11351
2000 03 14.27303 12 23 28.61 -01 14 33.1 17.0 R 703 – Catalina Sky Survey MPS 11351
2000 03 14.28891 12 23 27.83 -01 14 28.9 17.1 R 703 – Catalina Sky Survey MPS 11351
2000 03 14.30483 12 23 27.07 -01 14 23.7 17.1 R 703 – Catalina Sky Survey MPS 11351
2000 03 14.32075 12 23 26.31 -01 14 18.4 17.1 R 703 – Catalina Sky Survey MPS 11351
2000 03 26.33510 12 13 24.75 -00 05 54.6 16.7 R 699 – Lowell Observatory-LONEOS MPS 12300
2000 03 26.35565 12 13 23.60 -00 05 47.2   699 – Lowell Observatory-LONEOS MPS 12300
2000 03 26.37627 12 13 22.47 -00 05 40.3   699 – Lowell Observatory-LONEOS MPS 12300
2000 03 26.39688 12 13 21.33 -00 05 33.0   699 – Lowell Observatory-LONEOS MPS 12300
2000 03 30.30273 12 09 58.25 +00 16 55.3 17.0 R 703 – Catalina Sky Survey MPS 12300
2000 03 30.32616 12 09 56.94 +00 17 02.9 17.0 R 703 – Catalina Sky Survey MPS 12300
2000 03 30.35264 12 09 55.50 +00 17 12.2 17.1 R 703 – Catalina Sky Survey MPS 12300
2000 03 30.36462 12 09 54.86 +00 17 16.5 17.1 R 703 – Catalina Sky Survey MPS 12300
2000 04 04.31331 12 05 46.14 +00 44 18.7 17.9   704 – Lincoln Laboratory ETS, New Mexico MPS 12300
2000 04 04.32763 12 05 45.38 +00 44 22.8 17.8   704 – Lincoln Laboratory ETS, New Mexico MPS 12300
2000 04 04.34194 12 05 44.68 +00 44 26.5 18.1   704 – Lincoln Laboratory ETS, New Mexico MPS 12300
2000 04 04.35625 12 05 43.97 +00 44 31.6 18.7   704 – Lincoln Laboratory ETS, New Mexico MPS 12300
2000 04 04.37057 12 05 43.17 +00 44 35.7 18.1   704 – Lincoln Laboratory ETS, New Mexico MPS 12300
2000 04 05.20051 12 05 03.65 +00 48 54.2 17.5   704 – Lincoln Laboratory ETS, New Mexico MPS 12300
2000 04 05.21508 12 05 02.91 +00 48 58.5 17.4   704 – Lincoln Laboratory ETS, New Mexico MPS 12300
